Terminal Aerodrome Forecast
Issued by NWS Dodge City, KS

Home | Current Version | Previous Version | Graphics & Text | Print | Product List | Glossary Off
Versions: 1 2 3 4 5 6 7 8 9 10 11 12 13 14 15 16 17 18 19 20 21 22 23 24 25

000
FTUS43 KDDC 161305 AAB
TAFDDC
TAF AMD
KDDC 161305Z 1613/1712 05011G17KT P6SM OVC006
     FM161400 34013G22KT P6SM SCT120
     FM170800 31007KT P6SM FEW250=

USA.gov is the U.S. government's official web portal to all federal, state and local government web resources and services.